Regional Weather Roundup
Issued by NWS New Orleans/Baton Rouge, LA

Home | Current Version | Previous Version | Text Only | Print | Product List | Glossary On
Versions: 1 2 3 4 5 6 7 8 9 10 11 12 13 14 15 16 17 18 19 20 21 22 23 24 25 26 27 28 29 30 31 32 33 34 35 36 37 38 39 40 41 42 43 44 45 46 47 48 49 50
000
ASUS44 KLIX 280705
RWRLIX
NEW ORLEANS REGIONAL WEATHER ROUNDUP
NATIONAL WEATHER SERVICE NEW ORLEANS LA
100 AM CST FRI NOV 28 2014

NOTE: "FAIR" INDICATES FEW OR NO CLOUDS BELOW 12,000 FEET WITH NO
      SIGNIFICANT WEATHER AND/OR OBSTRUCTIONS TO VISIBILITY.
      SKY/WX - SKY CONDITION AND SIGNIFICANT WEATHER.
      TMP - AIR TEMPERATURE.     DP    - DEWPOINT TEMPERATURE.
      RH  - RELATIVE HUMIDITY.   PRES  - PRESSURE.
      HI  - HEAT INDEX.          WCI   - WIND CHILL INDEX.

*  THESE STATIONS ARE NOT NWS OR FAA STATIONS AND ARE NOT UNDER
   NWS QUALITY CONTROL.

LAZ038-040-048-061>063-065>067-069-280800-
SOUTHEAST LOUISIANA

CITY           SKY/WX    TMP DP  RH WIND       PRES   REMARKS
N.O. AUDUBON     N/A     47  35  63 MISG        N/A
N.O. INTL ARPT CLEAR     48  35  60 NE8       30.42F
N.O. LAKEFRONT CLEAR     50  35  56 NE18      30.42F
N.O. DOWNTOWN*   N/A     48  30  49 CALM      30.42F
SLIDELL        CLEAR     33  30  88 N6        30.43F WCI  28
BATON ROUGE    CLEAR     38  32  79 NE3       30.43F
BOOTHVILLE     CLEAR     52  40  63 NE8       30.41F
BELLE CHASSE   CLEAR     45  33  63 NE6       30.41F
BOGALUSA*        N/A     35  31  87 N5        30.46S WCI  30
NEW ROADS*       N/A     40  32  73 NE3       30.44S
GONZALES*        N/A     39  35  84 CALM      30.43S
HAMMOND*       CLEAR     41  32  70 NE3       30.44F
HOUMA*         CLEAR     40  36  86 CALM      30.42S
PORT FOURCHON* SUNNY     52  41  66 NE8       30.43F

$$

MSZ070-080>082-280800-
SOUTHERN MISSISSIPPI

CITY           SKY/WX    TMP DP  RH WIND       PRES   REMARKS
MCCOMB         CLEAR     38  30  73 NE5       30.43F WCI  34
GULFPORT       CLEAR     40  32  73 N5        30.43S
BILOXI         CLEAR     40  33  75 NE7       30.43S WCI  35
PASCAGOULA     CLEAR     37  32  82 N7        30.43S WCI  32

$$

COASTAL OBSERVATIONS
LAKE AND NEARSHORE STATIONS

STATION/POSITION TIME  TEMP    WIND        PRES    WAVE
                       AIR SEA DIR/SP/G            HT/PER
                 (UTC) (F)     (DEG/KT/KT) (MB)    (FT/S)
PASCAGOULA       0700   42      20/  5/  9 1029.9
WAVELAND YACHT   0700   44      30/  7/ 11 1029.6
GRAND ISLE       0700   52 59   60/ 10/ 14 1029.8
SOUTHWEST PASS   0700   54                 1029.4
NEW CANAL        0700   50 53   60/ 14/ 16 1030.0
SHELL BEACH      0700   50 52   40/ 16/ 17 1029.6

OFFSHORE STATIONS

STATION/POSITION TIME  TEMP    WIND        PRES    WAVE
                       AIR SEA DIR/SP/G            HT/PER
                 (UTC) (F)     (DEG/KT/KT) (MB)    (FT/S)
64 S DAUPHIN ISL 0608   55 71   40/ 17/ 23 1029.6    4/ 6

$$




USA.gov is the U.S. government's official web portal to all federal, state and local government web resources and services.